[[{"header":{"parameterUnit":"m.s-1","parameterCategory":1,"la1":30.2991,"la2":30.254,"lo1":-89.0895,"lo2":-89.0444,"dy":0.0017,"dx":0.0017,"nx":28,"ny":28,"refTime":"2025-02-23T03:00:00:Z","depth":0,"parameterNumber":2,"parameterNumberName":"U-component_of_WINDS"},"data":[0,0,0,0,0,0,0,0,0,0,0,0,0,0,0,0,0,0,0,0,0,0,0,0,0,0,0,0,0,0,0,0,0,0,0,0,0,0,0,0,0,0,0,0,0,0,0,0,0,0,0,0,0,0,0,0,0,0,-4.1687,-4.1687,0,-4.1759,-4.176,-4.1761,-4.1657,-4.1653,-4.165,-4.1646,-4.1733,-4.1739,-4.1745,0,0,0,0,0,0,0,0,0,0,0,0,0,-4.1472,-4.1477,-4.1687,-4.1687,-4.1688,-4.1759,-4.176,-4.1761,-4.1658,-4.1653,-4.1649,-4.1644,-4.1732,-4.1738,-4.1745,0,0,0,0,0,0,0,0,0,0,0,0,0,-4.1558,-4.1478,-4.1686,-4.1645,-4.1642,-4.1759,-4.176,-4.1761,-4.1659,-4.1653,-4.1647,-4.1642,-4.1729,-4.1738,-4.1746,-4.1911,0,0,-4.1773,-4.1777,0,0,0,0,0,0,0,0,-4.1553,-4.1566,-4.165,-4.1648,-4.1645,-4.1693,-4.1716,-4.1812,-4.166,-4.1653,-4.1646,-4.1639,-4.1725,-4.1734,-4.176,-4.1915,-4.1919,-4.1774,-4.1779,-4.1783,-4.1785,0,0,0,0,0,0,0,-4.1547,-4.1562,-4.1716,-4.1652,-4.1648,-4.1627,-4.1633,-4.1734,-4.172,-4.1653,-4.1645,-4.1655,-4.1723,-4.1752,-4.1762,-4.192,-4.1773,-4.1781,-4.1786,-4.179,-4.2219,-4.2225,0,0,0,0,0,0,-4.1544,-4.1558,-4.1713,-4.1718,-4.1584,-4.1636,-4.1642,-4.1683,-4.1718,-4.1718,-4.1659,-4.165,-4.174,-4.1752,-4.1764,-4.1962,-4.1782,-4.1791,-4.1796,-4.2213,-4.222,-4.2227,0,0,0,0,0,0,-4.154,-4.1559,-4.171,-4.1636,-4.1653,-4.1645,-4.1692,-4.1688,-4.1717,-4.1723,-4.1721,-4.1691,-4.1736,-4.1752,-4.1875,-4.1964,-4.1794,-4.1802,-4.2206,-4.2215,-4.2224,-4.2358,0,0,0,0,0,0,-4.1534,-4.1558,-4.1617,-4.1638,-4.1658,-4.1817,-4.1698,-4.1693,-4.173,-4.1718,-4.1752,-4.1753,-4.1733,-4.1863,-4.1884,-4.1973,-4.1809,-4.2198,-4.221,-4.2221,-4.2346,-4.2371,-4.2392,0,0,0,0,0,-4.1527,-4.1654,-4.1621,-4.164,-4.1731,-4.1822,-4.1834,-4.1804,-4.1738,-4.18,-4.1804,-4.1752,-4.195,-4.1877,-4.1899,-4.1992,-4.2192,-4.2206,-4.222,-4.2336,-4.2366,-4.2392,0,0,0,0,0,0,-4.1649,-4.1656,-4.1619,-4.1756,-4.1788,-4.1804,-4.188,-4.1837,-4.1893,-4.188,-4.1845,-4.1854,-4.1987,-4.2001,-4.1919,-4.2156,-4.2061,-4.208,-4.2141,-4.217,-4.2193,-4.2188,-4.1816,0,0,0,0,0,-4.169,-4.1759,-4.1764,-4.1885,-4.1902,-4.1889,-4.1928,-4.1902,-4.1937,-4.1951,-4.1964,-4.2004,-4.2075,-4.2123,-4.2189,-4.2347,-4.2356,-4.2423,-4.2446,-4.2465,-4.2483,-4.2572,-4.2603,-4.2273,-4.2273,-4.2273,0,0,-4.178,-4.1792,-4.1838,-4.1909,-4.1931,-4.2008,-4.1901,-4.1987,-4.2045,-4.1965,-4.2082,-4.2094,-4.2136,-4.2278,-4.2342,-4.2295,-4.2576,-4.2483,-4.2498,-4.2505,-4.2589,-4.2621,-4.2648,-4.2282,-4.2281,-4.2279,0,0,-4.1981,-4.1995,-4.2098,-4.2123,-4.2156,-4.2147,-4.2172,-4.2195,-4.2198,-4.2314,-4.2257,-4.2328,-4.2451,-4.2484,-4.2517,-4.2733,-4.2689,-4.2756,-4.2878,-4.2966,-4.2992,-4.3015,-4.3095,-4.3124,-4.2773,-4.2774,-4.2774,0,-4.2088,-4.2197,-4.2158,-4.2247,-4.2283,-4.221,-4.2318,-4.2345,-4.2401,-4.2429,-4.2374,-4.2528,-4.2551,-4.2702,-4.2755,-4.2783,-4.2814,-4.2753,-4.299,-4.3013,-4.3034,-4.311,-4.3141,-4.2782,-4.2781,-4.278,-4.2779,0,-4.2329,-4.2406,-4.2486,-4.2538,-4.2582,-4.268,-4.2661,-4.2711,-4.2683,-4.2681,-4.2803,-4.2828,-4.2899,-4.2932,-4.2907,-4.3082,-4.3051,-4.2994,-4.2899,-4.3074,-4.3146,-4.3174,-4.2794,-4.2791,-4.2788,-4.2786,0,0,-4.2609,-4.2638,-4.2669,-4.2692,-4.2725,-4.2787,-4.2884,-4.2949,-4.2995,-4.3037,-4.3121,-4.3227,-4.3175,-4.3212,-4.319,-4.3266,-4.3441,-4.32,-4.3201,-4.3247,-4.364,-4.3684,-4.3718,-4.341,-4.3416,-4.342,-4.3637,0,-4.2812,-4.2974,-4.2944,-4.3105,-4.3178,-4.3111,-4.3197,-4.323,-4.3231,-4.3297,-4.3301,-4.3378,-4.3301,-4.3324,-4.3396,-4.3404,-4.352,-4.3388,-4.3493,-4.3498,-4.3487,-4.3755,-4.3802,-4.4005,-4.3665,-4.3669,-4.3673,0,-4.307,-4.3118,-4.3285,-4.3308,-4.3338,-4.3414,-4.3474,-4.3536,-4.3574,-4.357,-4.3613,-4.3578,-4.368,-4.3581,-4.3725,-4.3636,-4.3678,-4.3689,-4.3697,-4.3707,-4.3597,-4.3777,-4.4069,-4.4101,-4.3716,-4.3712,-4.3709,0,-4.3261,-4.3368,-4.3482,-4.3504,-4.3534,-4.359,-4.3606,-4.3637,-4.368,-4.3734,-4.3762,-4.3828,-4.3866,-4.3921,-4.3906,-4.3835,-4.4055,-4.3954,-4.4059,-4.406,-4.411,-4.4108,-4.4417,-4.4133,-4.4133,-4.4132,-4.4132,0,-4.3492,-4.3598,-4.3568,-4.3639,-4.3757,-4.3723,-4.3843,-4.3852,-4.3881,-4.3956,-4.3904,-4.3977,-4.3952,-4.4026,-4.4015,-4.4138,-4.4155,-4.4159,-4.4156,-4.4165,-4.4165,-4.4193,-4.418,-4.414,-4.4138,-4.4137,-4.4135,0,-4.3726,-4.3709,-4.383,-4.3848,-4.3855,-4.3942,-4.396,-4.4029,-4.4026,-4.4123,-4.4144,-4.4142,-4.4225,-4.4216,-4.431,-4.4304,-4.4458,-4.4436,-4.4444,-4.444,-4.4546,-4.4538,-4.4887,-4.4933,-4.4617,-4.462,-4.4622,0,-4.3875,-4.3955,-4.398,-4.4025,-4.4044,-4.4116,-4.4159,-4.413,-4.4178,-4.4228,-4.4293,-4.437,-4.4431,-4.4569,-4.458,-4.4653,-4.4635,-4.4752,-4.4646,-4.4654,-4.4641,-4.4637,-4.4647,-4.4774,-4.4778,-4.478,-4.4783,0,-4.4143,-4.4132,-4.4192,-4.4251,-4.4302,-4.4349,-4.439,-4.4431,-4.4407,-4.4464,-4.4547,-4.4594,-4.4689,-4.477,-4.4839,-4.4861,-4.4821,-4.4816,-4.4845,-4.4856,-4.4859,-4.4862,-4.4504,-4.4808,-4.4806,-4.4804,-4.4803,-4.4802,-4.4342,-4.441,-4.4439,-4.451,-4.4537,-4.4578,-4.4644,-4.4649,-4.4716,-4.4788,-4.4769,-4.4864,-4.4904,-4.4992,-4.5022,-4.5099,-4.5057,-4.5098,-4.5109,-4.512,-4.5134,-4.4844,-4.5112,-4.5111,-4.5111,-4.511,-4.5109,0,-4.4609,-4.4624,-4.4689,-4.4748,-4.4805,-4.4756,-4.4801,-4.4853,-4.4936,-4.4974,-4.5034,-4.5132,-4.521,-4.5227,-4.5303,-4.5362,-4.5346,-4.5384,-4.5381,-4.5387,-4.5166,-4.5134,-4.5396,-4.5396,-4.5396,-4.5396,-4.5396,-4.5396,-4.4755,-4.487,-4.4862,-4.4992,-4.5007,-4.5096,-4.5127,-4.5166,-4.5196,-4.5306,-4.5369,-4.5378,-4.541,-4.5488,-4.5559,-4.5563,-4.5595,-4.5641,-4.5638,-4.5431,-4.5402,-4.5375,-4.5346,-4.5647,-4.5648,-4.5853,-4.5855,-4.5856]},{"header":{"parameterUnit":"m.s-1","parameterCategory":1,"la1":30.2991,"la2":30.254,"lo1":-89.0895,"lo2":-89.0444,"dy":0.0017,"dx":0.0017,"nx":28,"ny":28,"refTime":"2025-02-23T03:00:00:Z","depth":0,"parameterNumber":3,"parameterNumberName":"V-component_of_WINDS"},"data":[0,0,0,0,0,0,0,0,0,0,0,0,0,0,0,0,0,0,0,0,0,0,0,0,0,0,0,0,0,0,0,0,0,0,0,0,0,0,0,0,0,0,0,0,0,0,0,0,0,0,0,0,0,0,0,0,0,0,-3.4257,-3.4256,0,-3.4174,-3.4173,-3.4172,-3.4074,-3.4073,-3.4071,-3.407,-3.3986,-3.3985,-3.3984,0,0,0,0,0,0,0,0,0,0,0,0,0,-3.433,-3.433,-3.4257,-3.4256,-3.4255,-3.4174,-3.4173,-3.4172,-3.4075,-3.4073,-3.4071,-3.4069,-3.3986,-3.3985,-3.3984,0,0,0,0,0,0,0,0,0,0,0,0,0,-3.4278,-3.4329,-3.4257,-3.4197,-3.4191,-3.4174,-3.4173,-3.4172,-3.4075,-3.4073,-3.4071,-3.4069,-3.3986,-3.3985,-3.3984,-3.4021,0,0,-3.398,-3.3979,0,0,0,0,0,0,0,0,-3.4281,-3.4276,-3.4207,-3.4201,-3.4194,-3.4132,-3.4168,-3.4121,-3.4076,-3.4119,-3.407,-3.4067,-3.4036,-3.4031,-3.402,-3.4017,-3.4013,-3.398,-3.3979,-3.3978,-3.3978,0,0,0,0,0,0,0,-3.4285,-3.4279,-3.4224,-3.4206,-3.4198,-3.4173,-3.4163,-3.4158,-3.4091,-3.4115,-3.4108,-3.4099,-3.4032,-3.4022,-3.4017,-3.4012,-3.398,-3.3979,-3.3978,-3.3977,-3.403,-3.4032,0,0,0,0,0,0,-3.4298,-3.4282,-3.4227,-3.4222,-3.4233,-3.4174,-3.4163,-3.4154,-3.4091,-3.4079,-3.4101,-3.4095,-3.4025,-3.4019,-3.4014,-3.405,-3.3978,-3.3977,-3.3976,-3.4027,-3.403,-3.4032,0,0,0,0,0,0,-3.43,-3.4294,-3.423,-3.425,-3.424,-3.4175,-3.4166,-3.4154,-3.4143,-3.4081,-3.4068,-3.4103,-3.4023,-3.4016,-3.4019,-3.4045,-3.3977,-3.3975,-3.4025,-3.4028,-3.4031,-3.4123,0,0,0,0,0,0,-3.4302,-3.4295,-3.4309,-3.4251,-3.4239,-3.4237,-3.4168,-3.4154,-3.4141,-3.4132,-3.4078,-3.4068,-3.4021,-3.4021,-3.4017,-3.4042,-3.3974,-3.4022,-3.4026,-3.403,-3.4118,-3.4129,-3.4139,0,0,0,0,0,-3.4305,-3.4339,-3.431,-3.4304,-3.4255,-3.4239,-3.4232,-3.4177,-3.4144,-3.4156,-3.4115,-3.4069,-3.4044,-3.4022,-3.4017,-3.4042,-3.402,-3.4025,-3.403,-3.4113,-3.4127,-3.4139,0,0,0,0,0,0,-3.4403,-3.4331,-3.4298,-3.4314,-3.4283,-3.4223,-3.4237,-3.4195,-3.4173,-3.4166,-3.4099,-3.4087,-3.4097,-3.407,-3.4048,-3.4072,-3.4025,-3.4029,-3.409,-3.4103,-3.4113,-3.4119,-3.3973,0,0,0,0,0,-3.4427,-3.442,-3.4357,-3.4377,-3.4363,-3.4303,-3.4294,-3.4254,-3.4219,-3.4206,-3.4166,-3.4134,-3.4118,-3.4109,-3.4091,-3.4114,-3.4099,-3.4128,-3.4139,-3.4148,-3.4152,-3.4158,-3.4169,-3.4048,-3.4048,-3.4048,0,0,-3.4475,-3.4435,-3.4435,-3.4396,-3.4367,-3.436,-3.4293,-3.4289,-3.4283,-3.4206,-3.4204,-3.4174,-3.4134,-3.4145,-3.4148,-3.4123,-3.4182,-3.4154,-3.4162,-3.4161,-3.4164,-3.4175,-3.4186,-3.4052,-3.4051,-3.405,0,0,-3.4559,-3.4529,-3.4541,-3.4513,-3.447,-3.443,-3.4433,-3.4377,-3.4354,-3.4352,-3.4292,-3.4284,-3.4259,-3.4231,-3.4214,-3.4285,-3.424,-3.4281,-3.4338,-3.4344,-3.4353,-3.4362,-3.4384,-3.4393,-3.4286,-3.4286,-3.4286,0,-3.4625,-3.4612,-3.4553,-3.4552,-3.4535,-3.4464,-3.4474,-3.445,-3.4404,-3.4394,-3.4366,-3.4331,-3.4299,-3.4301,-3.4318,-3.4308,-3.4307,-3.4286,-3.4357,-3.4364,-3.4371,-3.4391,-3.44,-3.4291,-3.429,-3.429,-3.4289,0,-3.4694,-3.4686,-3.4701,-3.4656,-3.4641,-3.4647,-3.4586,-3.4579,-3.454,-3.4501,-3.4498,-3.4457,-3.4428,-3.4426,-3.4389,-3.4422,-3.4407,-3.437,-3.432,-3.4389,-3.4406,-3.4414,-3.4298,-3.4296,-3.4295,-3.4293,0,0,-3.4838,-3.4758,-3.4765,-3.4742,-3.4688,-3.468,-3.4681,-3.4652,-3.4645,-3.4615,-3.4612,-3.4592,-3.4555,-3.4536,-3.4494,-3.45,-3.4554,-3.4461,-3.4459,-3.4477,-3.4585,-3.4612,-3.4622,-3.4525,-3.4526,-3.4527,-3.4587,0,-3.491,-3.4906,-3.4852,-3.4863,-3.4853,-3.4785,-3.4785,-3.4751,-3.4715,-3.47,-3.466,-3.4645,-3.46,-3.4587,-3.459,-3.4548,-3.4575,-3.4543,-3.452,-3.452,-3.453,-3.4632,-3.4661,-3.4719,-3.4594,-3.4595,-3.4596,0,-3.4994,-3.4967,-3.4978,-3.492,-3.4914,-3.4916,-3.4882,-3.487,-3.483,-3.4803,-3.478,-3.4732,-3.4727,-3.4681,-3.4671,-3.4651,-3.4638,-3.4615,-3.4616,-3.461,-3.4561,-3.4626,-3.4737,-3.4745,-3.4607,-3.4606,-3.4605,0,-3.5094,-3.5061,-3.5062,-3.5045,-3.498,-3.4981,-3.4954,-3.4911,-3.4896,-3.4867,-3.4856,-3.4828,-3.4812,-3.479,-3.4735,-3.4707,-3.473,-3.4681,-3.4705,-3.4707,-3.4712,-3.4712,-3.482,-3.4708,-3.4708,-3.4708,-3.4708,0,-3.5179,-3.5188,-3.5105,-3.5106,-3.5112,-3.5049,-3.5057,-3.5023,-3.4985,-3.4976,-3.4915,-3.4908,-3.4837,-3.4822,-3.4779,-3.4775,-3.4769,-3.4745,-3.4733,-3.4749,-3.4752,-3.4739,-3.4732,-3.471,-3.471,-3.4709,-3.4709,0,-3.5292,-3.5238,-3.5233,-3.5171,-3.5155,-3.5162,-3.5108,-3.5105,-3.5064,-3.5054,-3.5048,-3.4984,-3.4962,-3.4905,-3.4869,-3.484,-3.4847,-3.4827,-3.4861,-3.4852,-3.4879,-3.4876,-3.498,-3.4989,-3.4875,-3.4876,-3.4877,0,-3.5349,-3.5353,-3.529,-3.528,-3.5255,-3.5239,-3.5223,-3.516,-3.5145,-3.5097,-3.51,-3.5073,-3.5048,-3.5015,-3.4965,-3.4936,-3.4913,-3.4951,-3.4908,-3.4923,-3.491,-3.4909,-3.4907,-3.496,-3.4962,-3.4963,-3.4964,0,-3.5454,-3.5426,-3.5405,-3.5374,-3.5356,-3.5328,-3.5298,-3.5292,-3.5221,-3.5208,-3.5184,-3.5165,-3.5126,-3.5099,-3.5062,-3.5032,-3.4985,-3.4978,-3.4982,-3.4997,-3.5015,-3.5002,-3.4883,-3.4976,-3.4975,-3.4974,-3.4973,-3.4973,-3.5538,-3.5537,-3.5492,-3.547,-3.544,-3.5412,-3.5404,-3.5362,-3.5342,-3.5305,-3.5269,-3.5249,-3.5205,-3.5149,-3.5123,-3.5104,-3.5081,-3.5087,-3.5088,-3.509,-3.5095,-3.502,-3.5098,-3.5097,-3.5097,-3.5097,-3.5096,0,-3.5638,-3.5605,-3.5585,-3.5543,-3.5524,-3.5483,-3.5445,-3.5432,-3.5415,-3.5378,-3.5354,-3.5325,-3.5298,-3.5245,-3.5212,-3.5207,-3.5185,-3.5201,-3.5199,-3.5192,-3.512,-3.5119,-3.5219,-3.5219,-3.5219,-3.5219,-3.5219,-3.5219,-3.5687,-3.5683,-3.565,-3.5629,-3.5595,-3.5575,-3.5556,-3.5529,-3.5499,-3.5469,-3.5446,-3.5412,-3.5367,-3.533,-3.5302,-3.5287,-3.5277,-3.5299,-3.5277,-3.521,-3.5198,-3.5187,-3.5185,-3.5298,-3.5298,-3.535,-3.535,-3.5351]}]]